Weather History for Fitchburg, MA

Change the Weather History Date:

Monday, May 5, 2014

  Actual Average (KORH) Record (KORH)
Temperature  
Mean Temperature 56 °F 53 °F  
Max Temperature 64 °F 63 °F 89 °F (1949)
Min Temperature 48 °F 44 °F 28 °F (1926)
Degree Days  
Heating Degree Days 10 12  
Month to date heating degree days 64  
Since 1 July heating degree days 6411  
Cooling Degree Days 0 0  
Month to date cooling degree days 0  
Year to date cooling degree days 3  
Growing Degree Days 6 (Base 50)    
Moisture  
Dew Point 38 °F    
Average Humidity 53    
Maximum Humidity 71    
Minimum Humidity 38    
Precipitation  
Precipitation 0.00 in 0.13 in 0.92 in (1922)
Month to date precipitation 0.63  
Year to date precipitation 15.67  
Sea Level Pressure  
Sea Level Pressure 29.78 in    
Wind  
Wind Speed 12 mph (NW)    
Max Wind Speed 18 mph    
Max Gust Speed 25 mph    
Visibility 10 miles    
Events      
T = Trace of Precipitation, MM = Missing Value Source: NWS Daily Summary

Daily Weather History Graph

Daily Weather History Graph

Search for Another Location

Airport:

Trip Planner

Search our weather history database for the weather conditions in past years. The results will help you decide how hot, cold, wet, or windy it might be!

Date:

Astronomy

May. 05, 2014 Rise Set
Actual Time 5:36 AM EDT 7:51 PM EDT
Civil Twilight 5:05 AM EDT 8:22 PM EDT
Nautical Twilight 4:26 AM EDT 9:01 PM EDT
Astronomical Twilight 3:44 AM EDT 9:44 PM EDT
Moon 10:53 AM EDT (5/5) 12:33 AM EDT (5/5)
Length of Visible Light 15h 17m
Length of Day
14h 14m
Waxing Crescent, 36% of the Moon is Illuminated
May 5
Waxing Crescent
May 6
First Quarter
May 14
Full
May 21
Last Quarter
May 28
New

Hourly Weather History & Observations

Time (EDT) Temp. Dew Point Humidity Pressure Visibility Wind Dir Wind Speed Gust Speed Precip Events Conditions
12:52 AM 48.9 °F 37.0 °F 64% 29.65 in 10.0 mi NW 13.8 mph 20.7 mph N/A   Mostly Cloudy
2:52 AM 48.9 °F 37.9 °F 66% 29.68 in 10.0 mi NW 10.4 mph - N/A   Scattered Clouds
3:52 AM 48.9 °F 39.0 °F 69% 29.69 in 10.0 mi NW 9.2 mph 17.3 mph N/A   Partly Cloudy
4:52 AM 48.9 °F 39.0 °F 69% 29.70 in 10.0 mi NW 10.4 mph - N/A   Partly Cloudy
5:52 AM 48.9 °F 39.9 °F 71% 29.74 in 10.0 mi NW 9.2 mph - N/A   Clear
6:52 AM 52.0 °F 41.0 °F 66% 29.76 in 10.0 mi NW 6.9 mph - N/A   Overcast
7:52 AM 55.0 °F 41.0 °F 59% 29.78 in 10.0 mi NW 13.8 mph 19.6 mph N/A   Partly Cloudy
8:52 AM 55.9 °F 41.0 °F 57% 29.78 in 10.0 mi NW 12.7 mph - N/A   Overcast
9:52 AM 57.9 °F 39.9 °F 51% 29.79 in 10.0 mi WNW 16.1 mph - N/A   Mostly Cloudy
10:52 AM 60.1 °F 37.9 °F 44% 29.80 in 10.0 mi North 18.4 mph - N/A   Mostly Cloudy
11:52 AM 59.0 °F 37.0 °F 44% 29.80 in 10.0 mi NW 16.1 mph 20.7 mph N/A   Overcast
12:52 PM 61.0 °F 37.9 °F 42% 29.79 in 10.0 mi NW 16.1 mph - N/A   Overcast
2:52 PM 62.1 °F 37.0 °F 39% 29.79 in 10.0 mi NW 15.0 mph 23.0 mph N/A   Overcast
3:52 PM 62.1 °F 36.0 °F 38% 29.79 in 10.0 mi NW 18.4 mph 25.3 mph N/A   Overcast
4:52 PM 63.0 °F 37.0 °F 38% 29.79 in 10.0 mi NNW 16.1 mph 23.0 mph N/A   Overcast
5:52 PM 60.1 °F 36.0 °F 41% 29.80 in 10.0 mi NNW 11.5 mph 23.0 mph N/A   Mostly Cloudy
6:52 PM 59.0 °F 36.0 °F 42% 29.82 in 10.0 mi North 11.5 mph - N/A   Overcast
7:52 PM 57.0 °F 36.0 °F 45% 29.83 in 10.0 mi NNW 8.1 mph - N/A   Clear
8:52 PM 53.1 °F 36.0 °F 52% 29.86 in 10.0 mi NW 3.5 mph - N/A   Clear
9:52 PM 50.0 °F 37.0 °F 61% 29.87 in 10.0 mi NW 5.8 mph - N/A   Clear
10:52 PM 48.9 °F 37.0 °F 64% 29.86 in 10.0 mi North 5.8 mph - N/A   Clear